Torna al catalogo

BRAZILSAT B3

AttivoComunicazioniGEO
NORAD 25152·PAYLOAD·🇧🇷 Brazil

Lanciato Feb 4, 1998 da Guiana Space Centre

Loading…

TLE

AggiornatoSource: Space-Track

Epoca: Sep 14, 2026, 13:26 UTC

1 25152U 98006A   26257.55992552  .00000064  00000-0  00000+0 0  9991
2 25152  10.9886  46.7383 0003198 139.8670 232.1345  0.99216231 44107

Traccia BRAZILSAT B3 in tempo reale con AllMySat

Download on the App Store